User: anonymous   Login
Location: Bidwell Hollow
(37.7387°N, 90.1707°W)
Time: 10:48:14
(UTC+00:00)
Language:

S-56A Canister/Altair - Orbit

View from above orbital plane
View from above orbital plane
View from above satellite
View from above satellite

Ground track
Ground track

The orbit is defined by the following mean orbital elements,

1 00082U          26134.35783610 +.00000000 +00000-0 +13319-3 0 00002
2 00082  38.8525 125.4442 1166040  62.2881 309.1188 12.27902342    02
Epoch (UTC): 14 May 2026 08:35:17
Eccentricity: 0.1166040
inclination: 38.8525°
perigee height: 633 km
apogee height: 2484 km
right ascension of ascending node: 125.4442°
argument of perigee: 62.2881°
revolutions per day: 12.27902342
mean anomaly at epoch: 309.1188°

The dashed part of the orbit path shows where the satellite is in the earth's shadow,  

DLR